SATCOM 3 DEB *, 32992

Orbit data source: Space-Track

SATCOM 3 DEB *, 32992 is space debris in HEO originally from a launch on Fri, 07 Dec 1979 UTC launched from the Air Force Eastern Test Range (AFETR). Debris objects in space refer to the collection of defunct objects orbiting the Earth. Examples of debris include non-operational satellites, rocket bodies, and fragments generated from explosions, collisions, or faulty payload assembly.

Not visible in the next 10 days
Identifier
32992, 1979-101T
Orbit
HEO
Country
Flag of USUS
Related business
Manufacturer
Unknown
Mission
Spacecraft
Bus & Motor
Unknown
Mass
Unknown
Launch date (UTC)
1979-12-07 (47 years ago)
Launch vehicle
Unknown
Launch site
Air Force Eastern Test Range (AFETR)
Object type
Payload
Rocket body
Debris
Shape & HBR
Unknown shape, 1.1 m
Radar Cross Section
Medium (>0.1 m² and <1 m²)

Expand to show TLE details & history
Last TLE update: 1 year ago

TLE from 1 year ago
0 SATCOM 3 DEB *
1 32992U 79101T   25056.60710858 -.00000094  00000-0  00000+0 0  9999
2 32992  13.1437 312.3523 4670485 354.0087 328.2287  1.78290476114244
Epoch: 2025-02-25T14:34Z
TLE epoch observation values (Epoch: 2025-02-25T14:34:14.181Z)
Latitude
-13.11536°
Longitude
-147.48284°
Altitude
14,345.288 km
Speed
4.959 km/s
True Right ascension
15h 07m 08s
True Declination
-13° 05' 21"
Sunlit
Object was in daylight at epoch
Visualization orbit readout
Latitude
Unknown
Longitude
Unknown
Altitude
Unknown
Speed
Unknown
Apparent Right ascension
Unknown
Apparent Declination
Unknown
Sunlit
N/A
Visualization observer readout
Local Sidereal Time
23:21:47
Azimuth
Unknown
Elevation
Unknown
Doppler factor
Unknown
Orbital elements
Apogee altitude
35,771.328 km
Perigee altitude
8,933.982 km
Semi-major axis
28,730.792 km
Eccentricity
0.46705
Inclination
13.1437°
RAAN
312.3523°
Arg. of periapsis
354.0087°
True anomaly
280.56065°
Mean anomaly
328.2287°
Eccentric anomaly
306.80167°
Mean motion
0.44568 °/min
Orbital period
807.76 mins
BSTAR
0
Loading maneuver chart data...
Computing Atmospheric mass density...
Loading historical data...
Loading historical data...
Loading historical data...
Loading historical data...
Loading historical data...
Loading historical data...
Loading historical data...

Documentation

Showing up to 5 results
|